FW8647 Weather Reports


time (UTC)temp
C
wind
direction
speed
KPH
gust
KPH
rain 1hr
cm
rain 24hr
cm
rain mn
cm
humidity
%
barometer
mb
20260508210137 12 182 9.7 11.3 0.00 0.00 0.00 46 1011.9
20260508205136 12 226 4.8 8.0 0.00 0.00 0.00 45 1011.8
20260508204134 12 160 6.4 16.1 0.00 0.00 0.00 48 1011.6
20260508203132 13 180 8.0 9.7 0.00 0.00 0.00 47 1011.7
20260508202131 12 164 4.8 8.0 0.00 0.00 0.00 43 1011.9
20260508201130 12 222 6.4 11.3 0.00 0.00 0.00 44 1012.3
20260508200129 12 185 9.7 16.1 0.00 0.00 0.00 44 1012.1
20260508195128 13 114 0.0 0.0 0.00 0.00 0.00 45 1012.2
20260508194128 12 162 8.0 11.3 0.00 0.00 0.00 48 1012.5
20260508193127 13 217 8.0 11.3 0.00 0.00 0.00 47 1012.5
20260508192127 12 189 4.8 9.7 0.00 0.00 0.00 49 1012.8
20260508191126 12 233 3.2 8.0 0.00 0.00 0.00 33 1012.9
20260508190126 13 267 4.8 8.0 0.00 0.00 0.00 33 1012.8
20260508185126 13 173 4.8 8.0 0.00 0.00 0.00 31 1012.9
20260508184126 12 202 1.6 3.2 0.00 0.00 0.00 34 1012.9
20260508183124 12 339 9.7 14.5 0.00 0.00 0.00 33 1013.0
20260508182123 12 212 11.3 16.1 0.00 0.00 0.00 34 1013.3
20260508181122 12 313 4.8 9.7 0.00 0.00 0.00 34 1013.6
20260508180121 12 161 3.2 4.8 0.00 0.00 0.00 36 1013.5
20260508175120 12 291 8.0 14.5 0.00 0.00 0.00 37 1013.7
20260508174121 11 70 0.0 0.0 0.00 0.00 0.00 36 1013.5
20260508173119 11 257 1.6 3.2 0.00 0.00 0.00 37 1013.8
20260508172119 12 215 0.0 0.0 0.00 0.00 0.00 36 1013.9
20260508171118 11 343 6.4 9.7 0.00 0.00 0.00 39 1013.8
20260508170118 11 268 4.8 8.0 0.00 0.00 0.00 38 1014.1
20260508165118 11 237 0.0 0.0 0.00 0.00 0.00 40 1014.0
20260508164117 11 220 8.0 9.7 0.00 0.00 0.00 39 1013.9
20260508163117 11 225 3.2 4.8 0.00 0.00 0.00 39 1014.4
20260508162117 11 242 6.4 9.7 0.00 0.00 0.00 41 1014.5
20260508161117 10 224 0.0 0.0 0.00 0.00 0.00 44 1014.5
20260508160112 11 259 0.0 0.0 0.00 0.00 0.00 43 1014.6
20260508155112 10 287 3.2 8.0 0.00 0.00 0.00 46 1014.9
20260508154112 10 257 0.0 1.6 0.00 0.00 0.00 45 1014.6
20260508153111 10 247 1.6 3.2 0.00 0.00 0.00 45 1014.7
20260508152109 10 199 1.6 3.2 0.00 0.00 0.00 47 1014.8
20260508151109 10 273 9.7 14.5 0.00 0.00 0.00 49 1014.6
20260508150108 9 152 6.4 9.7 0.00 0.00 0.00 51 1014.9
20260508145107 8 297 0.0 0.0 0.00 0.00 0.00 51 1015.1
20260508144102 9 309 3.2 3.2 0.00 0.00 0.00 54 1015.2
20260508143102 8 244 4.8 8.0 0.00 0.00 0.00 56 1015.0
20260508142101 8 345 0.0 0.0 0.00 0.00 0.00 57 1015.1
20260508141101 8 224 0.0 1.6 0.00 0.00 0.00 61 1014.9
20260508140101 8 187 4.8 12.9 0.00 0.00 0.00 62 1014.9
20260508135058 8 249 1.6 3.2 0.00 0.00 0.00 64 1014.8
20260508134058 8 177 0.0 0.0 0.00 0.00 0.00 65 1014.8
20260508133058 7 227 3.2 4.8 0.00 0.00 0.00 69 1014.8
20260508132058 7 232 4.8 8.0 0.00 0.00 0.00 70 1014.8
20260508131057 7 234 1.6 1.6 0.00 0.00 0.00 70 1014.8
20260508130055 7 314 6.4 11.3 0.00 0.00 0.00 72 1014.7
20260508125055 7 261 1.6 4.8 0.00 0.00 0.00 72 1014.6
20260508124055 7 199 0.0 0.0 0.00 0.00 0.00 73 1014.6
20260508123050 6 198 0.0 0.0 0.00 0.00 0.00 75 1014.8
20260508122049 6 228 1.6 1.6 0.00 0.00 0.00 75 1014.7
20260508121045 6 278 0.0 0.0 0.00 0.00 0.00 76 1014.7
20260508120041 6 252 0.0 0.0 0.00 0.00 0.00 77 1014.6
20260508115039 6 215 1.6 8.0 0.00 0.00 0.00 77 1014.5
20260508114039 5 245 4.8 9.7 0.00 0.00 0.00 77 1014.4
20260508113034 5 216 0.0 1.6 0.00 0.00 0.00 78 1014.4
20260508112033 5 218 0.0 0.0 0.00 0.00 0.00 78 1014.2
20260508111032 5 242 0.0 0.0 0.00 0.00 0.00 79 1014.2
20260508110032 5 208 0.0 0.0 0.00 0.00 0.00 79 1014.3
20260508105030 5 220 1.6 3.2 0.00 0.00 0.00 79 1014.3
20260508104030 5 191 0.0 1.6 0.00 0.00 0.00 79 1014.2
20260508103025 5 221 0.0 0.0 0.00 0.00 0.00 80 1014.3
20260508102020 5 204 0.0 1.6 0.00 0.00 0.00 81 1014.3
20260508101020 5 201 0.0 0.0 0.00 0.00 0.00 82 1014.3
20260508100020 5 201 0.0 0.0 0.00 0.00 0.00 81 1014.1
20260508095020 5 201 0.0 0.0 0.00 0.00 0.00 81 1014.2
20260508094020 5 201 0.0 0.0 0.00 0.00 0.00 81 1014.3
20260508093015 5 201 0.0 0.0 0.00 0.00 0.00 81 1014.1
20260508092011 5 202 1.6 3.2 0.00 0.00 0.00 82 1014.2
20260508091009 5 202 0.0 0.0 0.00 0.00 0.00 81 1014.3
20260508090009 5 202 0.0 0.0 0.00 0.00 0.00 82 1014.1
20260508085009 5 204 0.0 1.6 0.00 0.00 0.00 82 1014.3
20260508084010 5 202 0.0 0.0 0.00 0.00 0.00 82 1014.2
20260508083009 5 219 0.0 0.0 0.00 0.00 0.00 82 1014.4
20260508082008 5 216 4.8 8.0 0.00 0.00 0.00 82 1014.3
20260508081007 5 216 1.6 3.2 0.00 0.00 0.00 83 1014.3
20260508080002 5 226 1.6 1.6 0.00 0.00 0.00 83 1014.5
20260508074957 5 225 4.8 4.8 0.00 0.00 0.00 83 1014.4
20260508073956 5 244 1.6 4.8 0.00 0.00 0.00 83 1014.3
20260508072956 5 231 0.0 1.6 0.00 0.00 0.00 83 1014.4
20260508071955 5 280 3.2 4.8 0.00 0.00 0.00 83 1014.5
20260508070951 4 250 0.0 0.0 0.00 0.00 0.00 84 1014.5
20260508065946 4 313 3.2 4.8 0.00 0.00 0.00 84 1014.7
20260508064942 5 315 1.6 4.8 0.00 0.00 0.00 83 1014.7
20260508063942 5 315 3.2 4.8 0.00 0.00 0.00 81 1014.8
20260508062937 5 304 0.0 0.0 0.00 0.00 0.00 79 1014.9
20260508061937 5 254 0.0 0.0 0.00 0.00 0.00 78 1014.9
20260508060937 5 277 1.6 4.8 0.00 0.00 0.00 76 1015.2
20260508055936 6 262 3.2 4.8 0.00 0.00 0.00 71 1014.9
20260508054935 6 258 6.4 8.0 0.00 0.00 0.00 69 1015.2
20260508053935 5 222 0.0 0.0 0.00 0.00 0.00 71 1015.1
20260508052930 5 189 0.0 0.0 0.00 0.00 0.00 69 1014.9
20260508051929 5 203 0.0 0.0 0.00 0.00 0.00 70 1015.0
20260508050927 5 197 0.0 0.0 0.00 0.00 0.00 69 1015.2
20260508045926 5 193 0.0 0.0 0.00 0.00 0.00 66 1014.9
20260508044921 5 185 0.0 0.0 0.00 0.00 0.00 66 1015.1
20260508043919 5 196 0.0 0.0 0.00 0.00 0.00 65 1015.3
20260508042919 5 212 0.0 0.0 0.00 0.00 0.00 68 1015.4
20260508041914 5 184 1.6 1.6 0.00 0.00 0.00 73 1015.2
20260508040913 5 183 0.0 0.0 0.00 0.00 0.00 74 1015.1
20260508035908 5 231 0.0 0.0 0.00 0.00 0.00 73 1015.1
20260508034907 5 232 0.0 0.0 0.00 0.00 0.00 71 1015.0
20260508033907 5 234 0.0 0.0 0.00 0.00 0.00 68 1015.0
20260508032903 5 238 0.0 0.0 0.00 0.00 0.00 65 1015.0
20260508031902 5 283 0.0 0.0 0.00 0.00 0.00 66 1014.8
20260508030901 5 285 0.0 0.0 0.00 0.00 0.00 67 1015.1
20260508025856 5 324 0.0 0.0 0.00 0.00 0.00 68 1015.1
20260508024855 5 328 0.0 0.0 0.00 0.00 0.00 67 1015.1
20260508023854 6 323 0.0 0.0 0.00 0.00 0.00 67 1015.0
20260508022854 6 296 0.0 0.0 0.00 0.00 0.00 66 1015.1
20260508021852 6 311 0.0 0.0 0.00 0.00 0.00 67 1014.9
20260508020850 6 314 0.0 0.0 0.00 0.00 0.00 68 1015.0
20260508015845 6 313 0.0 0.0 0.00 0.00 0.00 69 1015.0
20260508014845 6 308 0.0 0.0 0.00 0.00 0.00 69 1015.0
20260508013843 6 317 0.0 0.0 0.00 0.00 0.00 69 1014.9
20260508012843 6 309 0.0 0.0 0.00 0.00 0.00 69 1014.7
20260508011838 6 321 0.0 0.0 0.00 0.00 0.00 69 1014.6
20260508010838 6 250 0.0 0.0 0.00 0.00 0.00 70 1014.7
20260508005838 6 308 0.0 0.0 0.00 0.00 0.00 70 1014.4
20260508004837 6 227 0.0 0.0 0.00 0.00 0.00 71 1014.4
20260508003835 6 214 0.0 0.0 0.00 0.00 0.00 71 1014.4
20260508002835 7 209 0.0 0.0 0.00 0.00 0.00 70 1014.1
20260508001833 7 213 0.0 0.0 0.00 0.00 0.00 70 1014.1
20260508000832 7 215 0.0 0.0 0.00 0.00 0.00 68 1013.9
20260507235831 7 216 0.0 0.0 0.00 0.00 0.00 68 1014.1
20260507234831 7 229 0.0 0.0 0.00 0.00 0.00 68 1014.1
20260507233829 7 277 0.0 0.0 0.00 0.00 0.00 69 1013.9
20260507232825 7 218 0.0 0.0 0.00 0.00 0.00 69 1013.9
20260507231825 7 265 0.0 0.0 0.00 0.00 0.00 68 1014.0
20260507230823 7 325 0.0 0.0 0.00 0.00 0.00 68 1014.0
20260507225821 7 278 0.0 0.0 0.00 0.00 0.00 70 1014.0
20260507224819 7 246 0.0 1.6 0.00 0.00 0.00 71 1014.2
20260507223818 7 342 1.6 3.2 0.00 0.00 0.00 72 1014.3
20260507222817 7 311 0.0 0.0 0.00 0.00 0.00 72 1014.4
20260507221817 6 320 3.2 4.8 0.00 0.00 0.00 73 1014.2
20260507220815 6 318 0.0 1.6 0.00 0.00 0.00 73 1014.1
20260507215815 7 306 6.4 12.9 0.00 0.00 0.00 72 1014.4
20260507214815 7 252 1.6 4.8 0.00 0.00 0.00 72 1014.2
20260507213813 7 222 1.6 4.8 0.00 0.00 0.00 72 1014.1
20260507212813 7 195 0.0 0.0 0.00 0.00 0.00 75 1014.0
20260507211812 7 149 1.6 4.8 0.00 0.00 0.00 74 1013.9
20260507210811 7 208 3.2 4.8 0.00 0.00 0.00 77 1014.0